Location: Nijmegen RU
(51.8233°N, 354.1314°E)
Time: 13:33:13
(UTC+02:00)

Envisat - Pass Details

Date: 28 February 2019
Orbit: 764 x 766 km, 98.1° (Epoch: 16 October)

Event Time Altitude Azimuth Distance (km) Brightness Sun altitude
Rises 19:55:58 0° 167° (SSE) 3,219 6.1 -9.2°
Reaches altitude 10° 19:58:15 10° 169° (S) 2,297 5.4 -9.6°
Maximum altitude 20:03:20 78° 256° (WSW) 787 3.2 -10.4°
Drops below altitude 10° 20:08:26 10° 343° (NNW) 2,314 5.7 -11.2°
Sets 20:10:46 0° 345° (NNW) 3,245 6.5 -11.5°
